This is the latest recevied weather packets stored in our database for station/object N8TWM-13. If no packets are shown the sender has not sent any weather packets the latest 10 day(s).
| Time | Temp. | Humidity | Pressure | Rain* | Wind** | Luminosity | Snow |
|---|---|---|---|---|---|---|---|
| 1777673834 | 7.22° C | 77% | 1014.4 hPa | 0 mm | - | 260 W/m² | - |
| 1777673531 | 6.67° C | 78% | 1014.6 hPa | 0 mm | - | 294 W/m² | - |
| 1777673229 | 7.22° C | 78% | 1014.5 hPa | 0 mm | - | 220 W/m² | - |
| 1777672926 | 6.67° C | 80% | 1014.4 hPa | 0 mm | - | 189 W/m² | - |
| 1777672623 | 6.67° C | 79% | 1014.7 hPa | 0 mm | - | 111 W/m² | - |
| 1777672318 | 6.67° C | 79% | 1014.3 hPa | 0 mm | - | 138 W/m² | - |
| 1777672013 | 6.11° C | 80% | 1014.4 hPa | 0 mm | - | 147 W/m² | - |
| 1777671709 | 6.11° C | 80% | 1014.4 hPa | 0 mm | - | 75 W/m² | - |
| 1777671406 | 6.67° C | 80% | 1014.2 hPa | 0 mm | - | 94 W/m² | - |
| 1777671102 | 6.11° C | 80% | 1014.4 hPa | 0 mm | - | 158 W/m² | - |
| 1777670799 | 6.11° C | 80% | 1014.4 hPa | 0 mm | - | 179 W/m² | - |
| 1777670495 | 6.11° C | 81% | 1014.4 hPa | 0 mm | - | 127 W/m² | - |
| 1777670192 | 6.11° C | 82% | 1014.2 hPa | 0 mm | - | 155 W/m² | - |
| 1777669890 | 6.11° C | 82% | 1014.3 hPa | 0 mm | - | 180 W/m² | - |
| 1777669586 | 5.56° C | 84% | 1014.1 hPa | 0 mm | - | 160 W/m² | - |
| 1777669283 | 5.56° C | 85% | 1014.2 hPa | 0 mm | - | 165 W/m² | - |
| 1777668979 | 5.56° C | 87% | 1014.3 hPa | 0 mm | - | 196 W/m² | - |
| 1777668677 | 5.56° C | 87% | 1014 hPa | 0 mm | - | 131 W/m² | - |
| 1777668374 | 5.56° C | 88% | 1014.1 hPa | 0 mm | - | 170 W/m² | - |
| 1777668069 | 5.56° C | 88% | 1013.8 hPa | 0 mm | - | 121 W/m² | - |
| 1777667766 | 5.56° C | 89% | 1013.8 hPa | 0 mm | - | 64 W/m² | - |
| 1777667464 | 5.56° C | 89% | 1014 hPa | 0 mm | - | 52 W/m² | - |
| 1777667161 | 5.56° C | 89% | 1014 hPa | 0 mm | - | 83 W/m² | - |
| 1777666857 | 5.56° C | 90% | 1013.7 hPa | 0 mm | - | 132 W/m² | - |
| 1777666554 | 5° C | 90% | 1013.8 hPa | 0 mm | - | 109 W/m² | - |
* Rain latest hour (hover to see other rain measurements)
** Current wind speed in m/s (hover to see current wind gust speed)